Weather History for Middletown, OH

Change the Weather History Date:

Sunday, March 30, 2014

  Actual Average (KDAY) Record (KDAY)
Temperature  
Mean Temperature 40 °F 46 °F  
Max Temperature 52 °F 55 °F 83 °F (1910)
Min Temperature 29 °F 36 °F 18 °F (1964)
Degree Days  
Heating Degree Days 24 19  
Month to date heating degree days 745  
Since 1 July heating degree days 5020  
Cooling Degree Days 0 0  
Month to date cooling degree days 0  
Year to date cooling degree days 0  
Moisture  
Dew Point 24 °F    
Average Humidity 59    
Maximum Humidity 80    
Minimum Humidity 25    
Precipitation  
Precipitation 0.00 in 0.13 in 1.41 in (1938)
Month to date precipitation 3.21  
Year to date precipitation 8.16  
Snow  
Snow 0.00 in 0.00 in 7.90 in (1987)
Month to date snowfall 3.3  
Since 1 July snowfall 22.6  
Snow Depth -    
Sea Level Pressure  
Sea Level Pressure 30.18 in    
Wind  
Wind Speed 6 mph (North)    
Max Wind Speed 13 mph    
Max Gust Speed 16 mph    
Visibility 10 miles    
Events      
T = Trace of Precipitation, MM = Missing Value Source: NWS Daily Summary

Daily Weather History Graph

Daily Weather History Graph

Search for Another Location

Airport:

Trip Planner

Search our weather history database for the weather conditions in past years. The results will help you decide how hot, cold, wet, or windy it might be!

Date:

Astronomy

Mar. 30, 2014 Rise Set
Actual Time 7:25 AM EDT 7:59 PM EDT
Civil Twilight 6:57 AM EDT 8:26 PM EDT
Nautical Twilight 6:26 AM EDT 8:58 PM EDT
Astronomical Twilight 5:53 AM EDT 9:31 PM EDT
Moon 7:10 AM EDT (3/30) 8:11 PM EDT (3/30)
Length of Visible Light 13h 28m
Length of Day
12h 34m
Waning Crescent, 0% of the Moon is Illuminated
Mar 30
Waning Crescent
Mar 30
New
Apr 7
First Quarter
Apr 15
Full
Apr 22
Last Quarter

Hourly Weather History & Observations

Time (EDT) Temp. Windchill Dew Point Humidity Pressure Visibility Wind Dir Wind Speed Gust Speed Precip Events Conditions
12:15 AM 35.1 °F 28.6 °F 26.8 °F 72% 30.14 in 10.0 mi NNW 8.1 mph - N/A   Scattered Clouds
12:35 AM 35.1 °F 27.9 °F 26.6 °F 71% 30.15 in 10.0 mi North 9.2 mph - N/A   Clear
12:55 AM 35.1 °F 28.6 °F 26.6 °F 71% 30.15 in 10.0 mi North 8.1 mph - N/A   Scattered Clouds
1:15 AM 34.3 °F 28.4 °F 26.2 °F 72% 30.15 in 10.0 mi North 6.9 mph - N/A   Clear
1:35 AM 33.4 °F 26.6 °F 25.3 °F 72% 30.15 in 10.0 mi North 8.1 mph - N/A   Clear
2:15 AM 32.5 °F 27.1 °F 24.8 °F 73% 30.15 in 10.0 mi North 5.8 mph - N/A   Clear
2:35 AM 32.5 °F 24.8 °F 24.8 °F 73% 30.15 in 10.0 mi NNW 9.2 mph - N/A   Clear
2:55 AM 32.5 °F 28.1 °F 24.8 °F 73% 30.15 in 10.0 mi North 4.6 mph - N/A   Clear
3:15 AM 32.5 °F 26.2 °F 25.2 °F 74% 30.16 in 10.0 mi North 6.9 mph - N/A   Clear
3:35 AM 32.5 °F 27.1 °F 25.5 °F 75% 30.16 in 10.0 mi North 5.8 mph - N/A   Clear
3:55 AM 32.5 °F 27.1 °F 25.7 °F 76% 30.16 in 10.0 mi North 5.8 mph - N/A   Clear
4:15 AM 32.5 °F 27.1 °F 25.7 °F 76% 30.16 in 10.0 mi North 5.8 mph - N/A   Clear
4:35 AM 32.5 °F 27.1 °F 25.5 °F 75% 30.16 in 10.0 mi North 5.8 mph - N/A   Clear
4:55 AM 32.5 °F - 25.5 °F 75% 30.16 in 10.0 mi Calm Calm - N/A   Clear
5:15 AM 30.2 °F 23.4 °F 23.0 °F 75% 30.16 in 10.0 mi North 6.9 mph - N/A   Clear
5:35 AM 30.2 °F 25.4 °F 23.0 °F 75% 30.16 in 10.0 mi NNE 4.6 mph - N/A   Clear
5:55 AM 30.2 °F 24.3 °F 23.2 °F 75% 30.17 in 10.0 mi North 5.8 mph - N/A   Clear
6:15 AM 30.2 °F 25.4 °F 23.4 °F 76% 30.17 in 10.0 mi North 4.6 mph - N/A   Clear
6:35 AM 30.2 °F 22.6 °F 23.7 °F 77% 30.19 in 10.0 mi NNW 8.1 mph - N/A   Clear
6:55 AM 29.3 °F 23.2 °F 22.6 °F 76% 30.20 in 10.0 mi North 5.8 mph - N/A   Clear
7:15 AM 29.1 °F 23.0 °F 22.5 °F 76% 30.20 in 10.0 mi North 5.8 mph - N/A   Clear
7:35 AM 29.1 °F 22.1 °F 22.5 °F 76% 30.21 in 10.0 mi North 6.9 mph - N/A   Clear
7:55 AM 29.3 °F 22.3 °F 22.5 °F 76% 30.22 in 10.0 mi North 6.9 mph - N/A   Clear
8:15 AM 29.7 °F 24.7 °F 23.2 °F 77% 30.23 in 10.0 mi North 4.6 mph - N/A   Clear
8:35 AM 31.8 °F 26.2 °F 24.8 °F 75% 30.23 in 10.0 mi North 5.8 mph - N/A   Clear
8:55 AM 32.5 °F 24.2 °F 25.0 °F 74% 30.23 in 10.0 mi North 10.4 mph - N/A   Clear
9:15 AM 32.5 °F 24.2 °F 24.6 °F 73% 30.23 in 10.0 mi North 10.4 mph - N/A   Clear
9:35 AM 32.5 °F 27.1 °F 24.3 °F 72% 30.22 in 10.0 mi North 5.8 mph - N/A   Clear
9:55 AM 32.7 °F 26.4 °F 23.9 °F 70% 30.23 in 10.0 mi North 6.9 mph - N/A   Clear
10:15 AM 35.1 °F 29.3 °F 25.3 °F 68% 30.22 in 10.0 mi North 6.9 mph - N/A   Clear
10:35 AM 35.1 °F 30.1 °F 24.6 °F 66% 30.21 in 10.0 mi North 5.8 mph - N/A   Clear
10:55 AM 35.1 °F 30.1 °F 24.1 °F 64% 30.21 in 10.0 mi NE 5.8 mph - N/A   Clear
11:15 AM 37.6 °F 31.6 °F 26.1 °F 63% 30.23 in 10.0 mi NNW 8.1 mph - N/A   Clear
11:35 AM 37.6 °F 31.0 °F 24.4 °F 59% 30.23 in 10.0 mi NNE 9.2 mph - N/A   Clear
11:55 AM 38.8 °F 34.6 °F 24.3 °F 56% 30.24 in 10.0 mi North 5.8 mph - N/A   Clear
12:15 PM 40.1 °F 33.6 °F 23.7 °F 52% 30.24 in 10.0 mi North 10.4 mph 16.1 mph N/A   Clear
12:35 PM 41.4 °F 35.2 °F 24.1 °F 50% 30.24 in 10.0 mi North 10.4 mph - N/A   Clear
12:55 PM 42.3 °F 39.4 °F 22.3 °F 45% 30.23 in 10.0 mi NNW 4.6 mph - N/A   Clear
1:15 PM 45.1 °F 42.8 °F 22.8 °F 41% 30.23 in 10.0 mi NNW 4.6 mph 8.1 mph N/A   Clear
1:35 PM 47.7 °F - 23.7 °F 39% 30.22 in 10.0 mi NNW 6.9 mph - N/A   Clear
1:55 PM 47.7 °F - 19.9 °F 33% 30.21 in 10.0 mi North 8.1 mph - N/A   Clear
2:15 PM 47.7 °F - 21.6 °F 36% 30.21 in 10.0 mi NW 9.2 mph - N/A   Clear
2:35 PM 48.0 °F - 20.5 °F 34% 30.20 in 10.0 mi WNW 5.8 mph - N/A   Clear
2:55 PM 49.8 °F - 21.0 °F 32% 30.19 in 10.0 mi NW 8.1 mph - N/A   Clear
3:15 PM 50.9 °F - 18.1 °F 27% 30.18 in 10.0 mi North 6.9 mph - N/A   Clear
3:35 PM 50.2 °F - 18.5 °F 29% 30.17 in 10.0 mi NE 3.5 mph - N/A   Clear
3:55 PM 52.7 °F - 20.1 °F 28% 30.17 in 10.0 mi NNE 5.8 mph - N/A   Clear
4:15 PM 52.7 °F - 17.6 °F 25% 30.17 in 10.0 mi NW 6.9 mph - N/A   Clear
4:35 PM 52.7 °F - 21.0 °F 29% 30.17 in 10.0 mi NW 12.7 mph 16.1 mph N/A   Clear
4:55 PM 52.7 °F - 20.5 °F 28% 30.16 in 10.0 mi NW 6.9 mph - N/A   Clear
5:15 PM 52.7 °F - 19.8 °F 27% 30.15 in 10.0 mi NNW 5.8 mph - N/A   Clear
5:35 PM 52.7 °F - 19.4 °F 27% 30.15 in 10.0 mi Calm Calm - N/A   Clear
5:55 PM 52.7 °F - 18.9 °F 26% 30.15 in 10.0 mi WNW 4.6 mph - N/A   Clear
6:15 PM 52.7 °F - 19.9 °F 28% 30.15 in 10.0 mi North 5.8 mph - N/A   Clear
6:35 PM 52.7 °F - 21.0 °F 29% 30.15 in 10.0 mi NW 4.6 mph - N/A   Clear
6:55 PM 52.7 °F - 20.8 °F 29% 30.15 in 10.0 mi West 6.9 mph - N/A   Clear
7:15 PM 52.7 °F - 21.0 °F 29% 30.15 in 10.0 mi NW 3.5 mph - N/A   Clear
7:35 PM 52.3 °F - 22.8 °F 32% 30.15 in 10.0 mi NW 4.6 mph - N/A   Clear
7:55 PM 50.2 °F - 21.2 °F 32% 30.16 in 10.0 mi Calm Calm - N/A   Clear
8:15 PM 47.7 °F - 28.0 °F 47% 30.16 in 10.0 mi Calm Calm - N/A   Clear
8:35 PM 42.4 °F - 30.7 °F 63% 30.17 in 10.0 mi Calm Calm - N/A   Clear
8:55 PM 38.8 °F - 30.2 °F 71% 30.17 in 10.0 mi Calm Calm - N/A   Clear
9:15 PM 38.8 °F - 29.8 °F 70% 30.17 in 10.0 mi Calm Calm - N/A   Clear
9:35 PM 37.8 °F - 28.4 °F 69% 30.17 in 10.0 mi Calm Calm - N/A   Clear
9:55 PM 37.6 °F - 30.0 °F 74% 30.18 in 10.0 mi Calm Calm - N/A   Clear
10:15 PM 36.0 °F - 27.9 °F 72% 30.17 in 10.0 mi Calm Calm - N/A   Clear
10:35 PM 35.1 °F - 27.9 °F 75% 30.17 in 10.0 mi Calm Calm - N/A   Clear
10:55 PM 35.1 °F - 28.4 °F 77% 30.17 in 10.0 mi Calm Calm - N/A   Clear
11:15 PM 35.1 °F - 29.3 °F 80% 30.17 in 10.0 mi Calm Calm - N/A   Clear
11:35 PM 33.8 °F - 28.2 °F 80% 30.18 in 10.0 mi Calm Calm - N/A   Clear
11:55 PM 32.5 °F - 27.1 °F 80% 30.18 in 10.0 mi Calm Calm - N/A   Clear